When you browse on this site, cookies collect data to enhance your experience and personalize the content and advertising you see.
Visit our Privacy Policy to learn more. By continuing to use the site, you agree to this use of cookies and data.
  • en Suisse
  • Liste des pays
  • À 7 jours
  • Température de l'eau
  • Carte satellitaire
  • Carte météo
  • Widgets météo
  • user-avatar
    Se connecter

    Météo par heure à Beijing

    Ce jour, 21 Janvier, Lundi

    Heure Température Précipitation Vent Pression Humidité
    00:00 -2°C° 0 mm 2 m/s 767 mmHg 18%
    01:00 0°C° 0 mm 1 m/s 767 mmHg 18%
    02:00 -2°C° 0 mm 2 m/s 767 mmHg 18%
    03:00 -2°C° 0 mm 2 m/s 766 mmHg 18%
    04:00 -3°C° 0 mm 2 m/s 766 mmHg 19%
    05:00 -3°C° 0 mm 2 m/s 766 mmHg 19%
    06:00 -3°C° 0 mm 2 m/s 765 mmHg 19%
    07:00 -3°C° 0 mm 2 m/s 765 mmHg 19%
    08:00 -2°C° 0 mm 3 m/s 766 mmHg 18%
    09:00 -1°C° 0 mm 3 m/s 765 mmHg 16%
    10:00 +1°C° 0 mm 3 m/s 765 mmHg 14%
    11:00 +1°C° 0 mm 4 m/s 765 mmHg 12%
    12:00 +3°C° 0 mm 3 m/s 764 mmHg 11%
    13:00 +4°C° 0 mm 3 m/s 764 mmHg 11%
    14:00 +7°C° 0 mm 2 m/s 762 mmHg 9%
    15:00 +6°C° 0 mm 2 m/s 762 mmHg 10%
    16:00 +6°C° 0 mm 1 m/s 762 mmHg 11%
    17:00 +5°C° 0 mm 1 m/s 762 mmHg 12%
    18:00 +5°C° 0 mm 1 m/s 762 mmHg 13%
    19:00 +4°C° 0 mm 1 m/s 762 mmHg 14%
    20:00 +3°C° 0 mm 2 m/s 762 mmHg 16%
    21:00 +2°C° 0 mm 2 m/s 762 mmHg 17%
    22:00 +1°C° 0 mm 2 m/s 762 mmHg 18%
    23:00 +1°C° 0 mm 2 m/s 762 mmHg 19%

    Demain, 22 Janvier, Mardi

    Heure Température Précipitation Vent Pression Humidité
    00:00 +1°C° 0 mm 2 m/s 762 mmHg 19%
    01:00 -1°C° 0 mm 2 m/s 762 mmHg 20%
    02:00 -1°C° 0 mm 2 m/s 762 mmHg 20%
    03:00 -1°C° 0 mm 2 m/s 762 mmHg 21%
    04:00 -1°C° 0 mm 2 m/s 761 mmHg 21%
    05:00 -1°C° 0 mm 2 m/s 761 mmHg 22%
    06:00 -1°C° 0 mm 2 m/s 761 mmHg 22%
    07:00 -2°C° 0 mm 2 m/s 761 mmHg 22%
    08:00 -2°C° 0 mm 2 m/s 761 mmHg 23%
    09:00 +1°C° 0 mm 2 m/s 761 mmHg 20%
    10:00 +3°C° 0 mm 2 m/s 761 mmHg 18%
    11:00 +5°C° 0 mm 2 m/s 761 mmHg 16%
    12:00 +6°C° 0 mm 2 m/s 761 mmHg 14%
    13:00 +8°C° 0 mm 2 m/s 760 mmHg 13%
    14:00 +9°C° 0 mm 2 m/s 760 mmHg 11%
    15:00 +8°C° 0 mm 2 m/s 760 mmHg 12%
    16:00 +8°C° 0 mm 1 m/s 760 mmHg 13%
    17:00 +8°C° 0 mm 1 m/s 761 mmHg 14%
    18:00 +7°C° 0 mm 1 m/s 761 mmHg 16%
    19:00 +5°C° 0 mm 1 m/s 761 mmHg 17%
    20:00 +4°C° 0 mm 1 m/s 762 mmHg 19%
    21:00 +4°C° 0 mm 1 m/s 762 mmHg 19%
    22:00 +3°C° 0 mm 1 m/s 762 mmHg 20%
    23:00 +3°C° 0 mm 1 m/s 763 mmHg 21%

    Après-demain, 23 Janvier, Mercredi

    Heure Température Précipitation Vent Pression Humidité
    00:00 +2°C° 0 mm 2 m/s 763 mmHg 21%
    01:00 +1°C° 0 mm 2 m/s 763 mmHg 22%
    02:00 +1°C° 0 mm 2 m/s 763 mmHg 22%
    03:00 +1°C° 0 mm 2 m/s 763 mmHg 22%
    04:00 +1°C° 0 mm 2 m/s 764 mmHg 22%
    05:00 -1°C° 0 mm 2 m/s 764 mmHg 23%
    06:00 +1°C° 0 mm 1 m/s 764 mmHg 23%
    07:00 +1°C° 0 mm 1 m/s 765 mmHg 24%
    08:00 +1°C° 0 mm 1 m/s 765 mmHg 24%
    09:00 +2°C° 0 mm 1 m/s 765 mmHg 22%
    10:00 +4°C° 0 mm 1 m/s 766 mmHg 21%
    11:00 +5°C° 0 mm 1 m/s 766 mmHg 19%
    12:00 +6°C° 0 mm 1 m/s 765 mmHg 19%
    13:00 +7°C° 0 mm 1 m/s 765 mmHg 18%
    14:00 +7°C° 0 mm 2 m/s 764 mmHg 18%
    15:00 +7°C° 0 mm 1 m/s 764 mmHg 20%
    16:00 +7°C° 0 mm 1 m/s 764 mmHg 22%
    17:00 +6°C° 0 mm 1 m/s 765 mmHg 24%
    18:00 +5°C° 0 mm 1 m/s 765 mmHg 30%
    19:00 +3°C° 0 mm 2 m/s 765 mmHg 37%
    20:00 +2°C° 0 mm 2 m/s 766 mmHg 44%
    21:00 +2°C° 0 mm 2 m/s 766 mmHg 51%
    22:00 +2°C° 0 mm 1 m/s 766 mmHg 57%
    23:00 +1°C° 0 mm 1 m/s 766 mmHg 64%

    24 Janvier, Jeudi

    Heure Température Précipitation Vent Pression Humidité
    00:00 +1°C° 0 mm 1 m/s 766 mmHg 67%
    01:00 0°C° 0 mm 1 m/s 766 mmHg 71%
    02:00 0°C° 0 mm 1 m/s 766 mmHg 74%
    03:00 0°C° 0 mm 1 m/s 766 mmHg 75%
    04:00 0°C° 0 mm 1 m/s 766 mmHg 77%
    05:00 -1°C° 0 mm 1 m/s 765 mmHg 79%
    06:00 -1°C° 0 mm 1 m/s 766 mmHg 79%
    07:00 -1°C° 0 mm 1 m/s 766 mmHg 79%
    08:00 -1°C° 0 mm 1 m/s 766 mmHg 79%
    09:00 0°C° 0 mm 1 m/s 766 mmHg 73%
    10:00 +1°C° 0 mm 1 m/s 766 mmHg 67%
    11:00 +2°C° 0 mm 1 m/s 766 mmHg 61%
    12:00 +3°C° 0 mm 1 m/s 766 mmHg 57%
    13:00 +4°C° 0 mm 1 m/s 765 mmHg 53%
    14:00 +5°C° 0 mm 1 m/s 765 mmHg 49%
    15:00 +4°C° 0 mm 1 m/s 765 mmHg 50%
    16:00 +4°C° 0 mm 1 m/s 765 mmHg 51%
    17:00 +4°C° 0 mm 1 m/s 765 mmHg 52%
    18:00 +3°C° 0 mm 1 m/s 766 mmHg 55%
    19:00 +3°C° 0 mm 1 m/s 767 mmHg 58%
    20:00 +2°C° 0 mm 1 m/s 768 mmHg 60%
    21:00 +2°C° 0 mm 1 m/s 769 mmHg 60%
    22:00 +1°C° 0 mm 1 m/s 769 mmHg 59%
    23:00 +1°C° 0 mm 1 m/s 770 mmHg 58%

    25 Janvier, Vendredi

    Heure Température Précipitation Vent Pression Humidité
    00:00 +1°C° 0 mm 1 m/s 770 mmHg 54%
    01:00 -1°C° 0 mm 2 m/s 771 mmHg 49%
    02:00 -1°C° 0 mm 2 m/s 771 mmHg 44%
    03:00 -2°C° 0 mm 2 m/s 771 mmHg 39%
    04:00 -2°C° 0 mm 2 m/s 771 mmHg 35%
    05:00 -2°C° 0 mm 2 m/s 772 mmHg 30%
    06:00 -2°C° 0 mm 2 m/s 772 mmHg 31%
    07:00 -2°C° 0 mm 2 m/s 773 mmHg 32%
    08:00 -3°C° 0 mm 2 m/s 773 mmHg 32%
    09:00 -1°C° 0 mm 2 m/s 774 mmHg 30%
    10:00 +1°C° 0 mm 2 m/s 774 mmHg 27%
    11:00 +2°C° 0 mm 2 m/s 774 mmHg 25%
    12:00 +3°C° 0 mm 2 m/s 773 mmHg 22%
    13:00 +4°C° 0 mm 2 m/s 773 mmHg 20%
    14:00 +5°C° 0 mm 2 m/s 772 mmHg 17%
    15:00 +4°C° 0 mm 2 m/s 772 mmHg 17%
    16:00 +5°C° 0 mm 1 m/s 772 mmHg 18%
    17:00 +5°C° 0 mm 1 m/s 772 mmHg 18%
    18:00 +4°C° 0 mm 1 m/s 773 mmHg 19%
    19:00 +3°C° 0 mm 1 m/s 774 mmHg 20%
    20:00 +2°C° 0 mm 1 m/s 774 mmHg 21%
    21:00 +1°C° 0 mm 1 m/s 774 mmHg 22%
    22:00 +1°C° 0 mm 1 m/s 775 mmHg 22%
    23:00 +1°C° 0 mm 1 m/s 775 mmHg 23%

    26 Janvier, Samedi

    Heure Température Précipitation Vent Pression Humidité
    00:00 0°C° 0 mm 1 m/s 775 mmHg 23%
    01:00 0°C° 0 mm 1 m/s 775 mmHg 23%
    02:00 0°C° 0 mm 1 m/s 774 mmHg 23%
    03:00 0°C° 0 mm 1 m/s 774 mmHg 23%
    04:00 0°C° 0 mm 1 m/s 774 mmHg 23%
    05:00 -1°C° 0 mm 1 m/s 774 mmHg 23%
    06:00 -2°C° 0 mm 0 m/s 774 mmHg 23%
    07:00 -2°C° 0 mm 0 m/s 774 mmHg 23%
    08:00 -2°C° 0 mm 0 m/s 774 mmHg 22%
    09:00 -1°C° 0 mm 0 m/s 773 mmHg 21%
    10:00 +1°C° 0 mm 0 m/s 773 mmHg 20%
    11:00 +2°C° 0 mm 0 m/s 773 mmHg 19%
    12:00 +4°C° 0 mm 1 m/s 772 mmHg 20%
    13:00 +4°C° 0 mm 1 m/s 771 mmHg 22%
    14:00 +4°C° 0 mm 2 m/s 770 mmHg 24%
    15:00 +5°C° 0 mm 1 m/s 770 mmHg 25%
    16:00 +5°C° 0 mm 1 m/s 770 mmHg 27%
    17:00 +4°C° 0 mm 1 m/s 770 mmHg 29%
    18:00 +4°C° 0 mm 1 m/s 770 mmHg 29%
    19:00 +3°C° 0 mm 1 m/s 770 mmHg 30%
    20:00 +2°C° 0 mm 1 m/s 770 mmHg 30%
    21:00 +2°C° 0 mm 1 m/s 770 mmHg 31%
    22:00 +1°C° 0 mm 1 m/s 770 mmHg 31%
    23:00 +1°C° 0 mm 1 m/s 769 mmHg 31%
    Voir plus